EN

Hourly Weather Almoharin

Today, 25 January, Monday

Time Temperature Precipitation Wind Pressure Humidity
00:00 +9°C° 0.1 mm 3 mps 726 mmHg 95%
01:00 +9°C° 0 mm 3 mps 725 mmHg 95%
02:00 +10°C° 0 mm 3 mps 725 mmHg 95%
03:00 +10°C° 0 mm 3 mps 725 mmHg 96%
04:00 +10°C° 0.2 mm 4 mps 725 mmHg 95%
05:00 +11°C° 0.2 mm 4 mps 724 mmHg 95%
06:00 +10°C° 0.2 mm 5 mps 724 mmHg 95%
07:00 +5°C° 0 mm 0 mps 727 mmHg 95%
08:00 +6°C° 0 mm 0 mps 727 mmHg 93%
09:00 +7°C° 0 mm 0 mps 728 mmHg 92%
10:00 +9°C° 0 mm 1 mps 728 mmHg 88%
11:00 +10°C° 0 mm 1 mps 728 mmHg 83%
12:00 +12°C° 0 mm 1 mps 728 mmHg 78%
13:00 +12°C° 0 mm 1 mps 728 mmHg 78%
14:00 +12°C° 0 mm 1 mps 728 mmHg 77%
15:00 +12°C° 0 mm 1 mps 727 mmHg 77%
16:00 +12°C° 0.2 mm 1 mps 728 mmHg 81%
17:00 +11°C° 0.2 mm 1 mps 728 mmHg 85%
18:00 +10°C° 0.2 mm 1 mps 728 mmHg 90%
19:00 +10°C° 0.3 mm 1 mps 728 mmHg 91%
20:00 +10°C° 0.3 mm 1 mps 729 mmHg 93%
21:00 +10°C° 0.3 mm 1 mps 729 mmHg 95%
22:00 +10°C° 0 mm 1 mps 729 mmHg 95%
23:00 +10°C° 0 mm 1 mps 729 mmHg 96%

Tomorrow, 26 January, Tuesday

Time Temperature Precipitation Wind Pressure Humidity
00:00 +10°C° 0 mm 1 mps 729 mmHg 96%
01:00 +10°C° 0 mm 1 mps 730 mmHg 96%
02:00 +11°C° 0 mm 1 mps 730 mmHg 97%
03:00 +10°C° 0 mm 0 mps 730 mmHg 97%
04:00 +10°C° 0 mm 0 mps 730 mmHg 97%
05:00 +11°C° 0 mm 1 mps 730 mmHg 97%
06:00 +11°C° 0 mm 1 mps 730 mmHg 97%
07:00 +11°C° 0 mm 1 mps 731 mmHg 97%
08:00 +11°C° 0 mm 1 mps 731 mmHg 96%
09:00 +12°C° 0 mm 1 mps 732 mmHg 96%
10:00 +12°C° 0 mm 2 mps 732 mmHg 94%
11:00 +13°C° 0 mm 2 mps 732 mmHg 92%
12:00 +13°C° 0 mm 2 mps 732 mmHg 90%
13:00 +14°C° 0 mm 2 mps 732 mmHg 90%
14:00 +14°C° 0 mm 2 mps 732 mmHg 91%
15:00 +14°C° 0 mm 2 mps 731 mmHg 91%
16:00 +14°C° 0 mm 2 mps 731 mmHg 93%
17:00 +13°C° 0 mm 2 mps 732 mmHg 95%
18:00 +13°C° 0 mm 2 mps 732 mmHg 96%
19:00 +13°C° 0 mm 2 mps 732 mmHg 97%
20:00 +13°C° 0 mm 1 mps 732 mmHg 97%
21:00 +13°C° 0 mm 1 mps 733 mmHg 98%
22:00 +13°C° 0 mm 1 mps 733 mmHg 98%
23:00 +13°C° 0 mm 1 mps 733 mmHg 98%

Day after tomorrow, 27 January, Wednesday

Time Temperature Precipitation Wind Pressure Humidity
00:00 +13°C° 0 mm 1 mps 733 mmHg 98%
01:00 +13°C° 0 mm 1 mps 732 mmHg 98%
02:00 +13°C° 0 mm 1 mps 732 mmHg 98%
03:00 +13°C° 0 mm 1 mps 732 mmHg 98%
04:00 +13°C° 0 mm 1 mps 732 mmHg 98%
05:00 +13°C° 0 mm 1 mps 732 mmHg 98%
06:00 +13°C° 0 mm 1 mps 732 mmHg 98%
07:00 +13°C° 0 mm 1 mps 732 mmHg 98%
08:00 +13°C° 0 mm 1 mps 732 mmHg 97%
09:00 +13°C° 0 mm 1 mps 733 mmHg 97%
10:00 +14°C° 0 mm 1 mps 733 mmHg 94%
11:00 +14°C° 0 mm 1 mps 733 mmHg 91%
12:00 +15°C° 0 mm 1 mps 733 mmHg 88%
13:00 +16°C° 0 mm 1 mps 732 mmHg 87%
14:00 +16°C° 0 mm 1 mps 732 mmHg 85%
15:00 +16°C° 0 mm 2 mps 732 mmHg 83%
16:00 +16°C° 0 mm 1 mps 732 mmHg 86%
17:00 +15°C° 0 mm 1 mps 732 mmHg 88%
18:00 +14°C° 0 mm 1 mps 732 mmHg 90%
19:00 +14°C° 0 mm 1 mps 732 mmHg 91%
20:00 +14°C° 0 mm 1 mps 732 mmHg 91%
21:00 +14°C° 0 mm 1 mps 733 mmHg 91%
22:00 +14°C° 0 mm 1 mps 733 mmHg 93%
23:00 +13°C° 0 mm 1 mps 733 mmHg 94%

28 January, Thursday

Time Temperature Precipitation Wind Pressure Humidity
00:00 +12°C° 0 mm 1 mps 733 mmHg 95%
01:00 +12°C° 0 mm 1 mps 733 mmHg 96%
02:00 +10°C° 0 mm 0 mps 733 mmHg 96%
03:00 +10°C° 0 mm 0 mps 733 mmHg 97%
04:00 +10°C° 0 mm 0 mps 733 mmHg 97%
05:00 +10°C° 0 mm 0 mps 733 mmHg 97%
06:00 +9°C° 0 mm 0 mps 732 mmHg 98%
07:00 +10°C° 0 mm 0 mps 733 mmHg 97%
08:00 +11°C° 0 mm 0 mps 733 mmHg 96%
09:00 +11°C° 0 mm 0 mps 734 mmHg 95%
10:00 +12°C° 0 mm 0 mps 734 mmHg 92%
11:00 +14°C° 0 mm 1 mps 734 mmHg 89%
12:00 +15°C° 0 mm 1 mps 734 mmHg 87%
13:00 +15°C° 0 mm 1 mps 733 mmHg 85%
14:00 +15°C° 0 mm 1 mps 733 mmHg 83%
15:00 +16°C° 0 mm 1 mps 733 mmHg 81%
16:00 +15°C° 0 mm 1 mps 733 mmHg 85%
17:00 +14°C° 0 mm 1 mps 733 mmHg 89%
18:00 +12°C° 0 mm 0 mps 732 mmHg 92%

29 January, Friday

Time Temperature Precipitation Wind Pressure Humidity

30 January, Saturday

Time Temperature Precipitation Wind Pressure Humidity
Show more